Weather in Gosttsy

Russia / Novgorod Oblast     58°19′15″N   31°42′23″E
temp.,
°C
wind,
m/s
gust,
m/s
humid.,
%
clouds,
%
prec.,
mm/h
press.,
hPa
HPBL,
m
2 march, tue
tue200:00+2wnw5129097 0.0 1013689
03:00+1w5129198 0.0 1013582
06:00+1wnw51191100 0.0 1012637
09:00+1wnw51089100 0.0 1011737
12:00+2nw61082100 0.0 1012798
15:00+2nw6117992 0.0 1013907
18:00+1nw5128138 0.0 1015867
21:00−1nw5138438 0.0 1018720
3 march, wed
wed300:00−1wnw410890 0.0 1019418
03:00−2wnw410911 0.0 1020409
06:00−2wnw4129116 0.0 1018472
09:00−2w5128925 0.0 1018562
12:000w6108391 0.0 1017750
15:00+1w6107993 0.0 1015807
18:00+1wsw4117899 0.0 1012669
21:00+1wsw51392100 0.0 1009607
4 march, thu
thu400:00+1wsw71486100 0.0 1004699
03:00+1w61296100 0.1 1003679
06:00+1wnw51198100 0.4 1001700
09:00−1nw4976100 0.6 1001831
12:00−1nw476676 0.0 10011066
15:000nnw476768 0.1 10021206
18:00−2nw367421 0.1 1003295
21:00−3nnw378218 0.2 1005442
5 march, fri
fri500:00−4nw3684100 0.1 1006539
03:00−5nw368192 0.2 1007466
06:00−6nw368336 0.0 1008433
09:00−6nw368356 0.0 1009581
12:00−5nw3573100 0.1 1010829
15:00−4nw3567100 0.1 10111014
18:00−5nw356997 0.0 1012768
21:00−6nw258098 0.1 1014309
6 march, sat
sat600:00−7nw268894 0.0 1015342
03:00−7n478497 0.3 1016566
06:00−9nnw377863 0.0 1017513
09:00−11nnw367769 0.1 1014480
12:00−8wnw24670 0.0 1014717
15:00−7wsw256632 0.0 1013676
18:00−7ssw247165 0.0 1011148
21:00−7s487481 0.0 1008308